RH
76 78 79 77 75 68 59 54 51 48 46 45 46 47 48 50 51 53 54 54 56 58 59 61 64 68 72 75 78 81 84 87 86 82 77 70 66 67 69 69 65 54 38 26 20 16 21 44 71 82 82 81 80 77 73 71 73 75 75 77 79 79 77 76 74 71 67 65 63 62 61 62 63 65 67 69 71 72 72 72 72 71 70 68 68
76 79 80 77 72 63 55 53 52 47 44 45 48 51 52 53 54 56 56 56 58 60 62 66 71 75 77 79 83 85 88 89 82 75 72 69 70 72 70 66 56 40 26 17 14 15 16 25 49 70 77 79 78 74 70 71 76 78 79 80 82 81 79 76 74 70 66 64 62 59 58 57 56 55 57 58 60 62 64 66 67 68 69 71 72
75 78 77 71 65 59 55 54 51 46 47 51 54 56 58 59 59 60 61 63 66 68 71 76 78 79 81 83 86 88 89 85 75 71 72 72 72 71 69 64 51 32 19 13 9 11 14 19 33 56 72 78 79 76 74 75 77 77 78 78 78 79 79 79 78 76 73 72 70 69 70 68 62 57 56 57 58 59 58 58 59 59 60 62 63
72 73 70 63 60 58 56 53 49 48 52 56 59 62 65 67 68 69 72 74 76 77 79 80 81 83 84 86 88 89 87 79 71 71 72 71 71 72 73 69 56 37 20 11 7 9 15 24 35 53 69 77 78 78 77 76 76 74 75 75 74 77 80 82 81 81 81 80 80 80 82 81 78 74 70 69 69 68 66 64 63 62 61 60 59
69 65 60 58 56 56 55 52 52 54 57 61 65 67 69 71 74 77 78 78 79 79 78 79 82 85 88 90 90 85 78 71 69 70 70 71 74 76 78 74 58 36 17 8 7 9 19 35 49 63 75 79 78 79 78 77 77 76 76 78 78 80 82 83 83 83 82 81 81 82 83 83 84 82 80 78 76 75 73 71 69 69 67 65 63
64 58 55 55 55 56 56 54 57 60 63 67 69 69 71 74 76 78 78 78 79 79 79 81 84 88 91 91 84 74 69 67 69 70 71 75 78 78 80 72 46 22 10 6 6 8 16 30 46 60 72 77 76 78 79 78 77 76 78 80 82 83 82 81 80 78 76 75 76 78 80 82 82 82 81 80 79 77 74 72 71 70 70 69 67
58 55 53 55 57 59 59 60 63 65 67 70 71 72 76 77 77 77 78 80 81 82 83 85 87 90 90 84 73 69 69 71 73 74 76 78 77 78 79 60 28 10 7 6 6 7 9 15 23 33 47 59 67 71 75 76 74 72 76 79 80 80 78 75 74 74 73 73 72 73 76 80 80 81 81 82 84 85 84 82 79 73 73 75 74
53 52 55 58 60 61 63 68 71 70 72 73 75 77 77 75 75 77 79 80 82 84 86 89 91 91 86 76 68 70 73 74 75 77 78 76 75 79 73 45 18 11 10 7 6 5 5 6 7 11 18 27 35 41 51 65 72 71 70 69 67 67 66 65 66 68 69 70 68 70 73 75 78 81 83 87 92 94 94 95 92 84 81 82 84
54 53 56 58 61 65 70 74 75 76 77 77 80 81 76 73 75 78 80 81 83 86 88 91 93 88 79 71 69 73 75 74 76 77 76 74 76 77 60 32 20 20 16 11 10 8 7 6 5 5 5 6 9 12 22 39 52 59 61 61 62 63 63 64 65 67 71 74 72 72 72 73 76 82 86 92 98 98 97 97 95 93 92 91 91
51 50 53 57 63 69 73 75 76 79 81 82 85 83 77 74 76 78 80 82 85 89 90 92 90 81 72 70 72 74 73 73 76 76 74 76 78 67 42 25 23 23 18 15 13 10 8 6 5 5 4 4 4 7 15 24 37 57 71 73 75 78 79 80 80 82 86 86 82 83 82 76 72 76 84 93 99 99 97 96 94 94 94 94 94
46 42 47 54 63 71 74 76 75 78 84 86 84 81 78 78 79 80 82 84 87 89 86 83 81 74 71 73 74 75 75 76 77 77 77 78 68 48 32 29 31 28 22 15 9 7 6 4 4 4 3 4 4 7 17 29 44 67 83 85 83 86 92 98 100 98 97 95 93 91 84 71 66 72 80 89 96 98 96 94 93 92 92 95 95
48 43 48 55 61 66 71 75 76 78 86 87 82 81 82 82 82 83 85 84 83 81 76 73 74 73 74 76 76 76 77 78 80 80 75 66 51 40 41 46 46 41 29 15 6 4 4 3 4 5 5 6 6 5 10 18 26 38 49 54 55 58 68 79 85 86 85 82 78 71 65 65 72 77 79 84 91 94 92 89 88 86 88 92 90
49 44 49 53 55 60 67 75 75 74 79 82 81 81 81 82 85 87 87 83 79 76 73 73 75 76 77 78 78 77 77 79 79 71 59 49 46 50 57 61 59 46 26 10 5 5 6 8 10 14 18 22 24 25 25 26 28 31 37 43 46 50 54 58 63 68 67 63 57 56 64 76 83 81 81 85 88 89 88 87 85 84 85 86 83
45 36 38 40 45 54 63 70 69 69 75 79 79 80 81 81 85 89 88 82 77 76 75 75 77 78 79 79 79 78 77 74 66 54 46 48 56 62 66 66 55 34 14 8 12 16 21 25 29 36 43 50 57 60 59 60 60 61 66 69 71 73 74 74 78 81 78 75 76 78 81 85 86 86 88 92 90 88 88 88 86 85 86 85 82
44 33 30 29 37 51 61 68 73 78 81 80 78 82 84 84 88 92 89 82 79 78 76 76 80 82 82 80 77 73 68 60 50 45 49 58 64 65 63 52 32 15 12 21 32 39 44 49 57 65 70 74 79 81 80 80 79 78 78 78 78 79 79 81 87 88 86 87 91 92 90 89 91 94 95 96 95 92 90 89 88 89 89 86 83
44 34 30 31 43 59 67 73 79 82 82 80 80 83 88 89 89 90 87 83 81 78 78 82 84 82 77 72 66 61 56 50 47 50 59 64 62 54 42 25 15 17 30 44 55 62 66 72 78 84 86 86 85 84 84 84 83 83 82 80 79 80 80 82 85 87 90 92 92 91 91 91 93 94 95 97 96 94 92 89 88 92 94 88 83
47 38 36 43 56 66 72 75 80 81 82 83 84 86 91 91 88 87 85 82 78 77 81 83 78 70 64 60 57 55 52 51 53 59 65 60 46 31 17 13 23 39 53 63 72 76 80 85 89 90 89 85 80 77 77 79 80 82 83 82 81 81 80 81 82 85 90 93 94 95 93 92 92 92 94 96 95 95 95 90 88 93 94 90 85
57 49 46 52 59 66 72 77 81 84 83 84 87 90 93 92 88 85 81 77 76 76 75 69 60 56 54 53 53 52 51 53 59 64 59 41 23 14 16 28 47 59 64 70 76 81 85 88 89 86 81 76 73 71 74 77 80 81 82 82 82 81 81 81 80 80 82 83 86 90 91 91 94 93 93 93 92 92 92 90 91 93 92 91 92
63 55 49 52 60 71 79 81 82 85 85 87 91 94 94 90 84 79 77 76 74 68 61 54 48 45 44 43 43 45 49 54 57 49 33 18 15 23 36 52 64 67 68 70 73 78 83 83 77 73 71 70 72 73 75 79 84 87 88 88 86 83 82 80 78 76 76 75 76 79 81 84 90 95 95 93 91 90 89 90 92 94 92 93 96
62 57 52 55 67 83 88 84 84 87 90 92 94 93 90 83 76 73 72 68 61 53 49 45 41 38 37 37 37 39 40 39 32 21 15 23 36 48 59 70 71 69 73 75 72 72 75 73 68 67 71 76 78 79 78 80 84 87 91 95 95 93 89 85 81 78 77 76 77 79 80 82 88 96 98 96 93 92 92 92 94 96 98 97 97
62 63 61 62 75 89 91 87 87 89 91 93 92 89 82 72 63 58 54 50 47 44 42 40 40 39 37 31 26 23 18 14 13 18 32 52 64 67 72 77 76 74 77 76 70 67 67 67 67 70 76 80 82 83 82 83 85 86 89 93 96 97 97 93 90 86 81 79 81 82 82 83 87 93 97 98 96 95 96 98 98 99 100 99 99
69 73 69 67 79 91 91 89 90 90 90 90 85 76 66 56 47 43 43 44 41 38 39 42 41 34 24 15 10 8 9 15 27 43 59 73 78 76 76 77 79 80 75 68 65 64 65 68 70 74 79 81 81 83 83 84 86 86 87 89 92 96 98 98 98 94 85 82 86 88 87 86 87 91 96 99 99 98 99 100 98 98 98 98 99
78 76 71 74 85 92 92 91 90 87 83 77 66 55 48 44 44 45 47 45 40 41 44 41 30 18 10 8 9 13 24 38 51 62 70 76 76 76 76 79 82 79 69 63 65 66 65 66 67 70 74 75 75 76 77 78 82 85 87 89 90 94 97 98 97 92 86 86 91 94 95 93 91 90 92 94 95 96 96 97 96 95 94 95 96
81 75 74 81 88 89 90 90 85 77 67 57 49 44 44 46 49 51 51 49 47 46 38 25 15 10 9 11 19 30 44 55 62 67 69 71 73 76 79 81 79 72 65 65 67 64 61 63 66 70 73 72 71 73 74 77 83 88 90 90 90 92 96 97 94 89 89 93 96 98 100 99 95 92 90 88 90 93 94 94 93 91 89 88 88
70 67 76 87 91 90 88 84 76 63 51 46 47 47 49 53 55 54 51 47 41 31 20 14 13 13 13 19 31 44 52 57 62 65 65 69 75 75 73 74 72 67 64 62 58 57 61 66 70 72 72 72 74 75 78 83 89 92 92 91 89 90 92 93 92 91 95 99 100 100 100 99 97 95 92 89 89 91 91 91 90 89 87 84 82
59 65 82 92 96 92 80 69 63 53 44 45 49 50 54 59 57 50 42 32 23 18 17 17 17 15 18 27 40 52 58 60 61 61 64 72 74 68 63 65 66 65 60 54 53 59 64 67 69 70 71 77 84 87 88 90 93 95 97 97 95 93 93 93 94 96 98 98 98 100 100 99 98 99 97 95 93 91 90 88 87 87 87 84 82
70 79 90 94 92 81 64 55 54 50 47 48 49 52 59 59 48 36 27 22 20 21 22 21 19 19 23 36 52 64 69 67 61 58 63 70 68 62 60 60 60 59 54 51 56 63 65 65 67 69 74 83 91 94 94 94 94 97 100 100 98 97 98 99 98 98 97 96 97 99 100 100 99 99 99 98 97 95 93 89 87 86 86 85 84
91 94 96 93 83 66 54 54 56 54 53 53 53 56 57 49 35 27 24 24 27 26 24 22 21 22 31 48 64 72 73 69 62 60 64 66 62 60 61 60 60 61 56 54 60 65 65 66 68 69 76 86 93 95 95 94 96 99 100 99 99 99 99 99 98 97 97 97 98 99 100 100 100 99 98 97 96 97 96 93 90 88 86 86 86
91 96 98 88 71 59 56 59 61 60 59 58 56 55 49 38 32 29 28 29 31 28 25 23 23 30 46 60 67 69 70 67 63 64 66 65 62 60 60 63 65 63 57 58 65 67 66 67 69 71 80 91 97 100 98 96 96 97 98 99 99 99 99 99 98 98 99 99 99 100 100 100 100 100 99 98 98 99 98 97 96 93 89 87 87
77 90 94 78 63 60 61 62 65 68 67 65 61 53 42 36 36 36 34 35 36 31 26 24 27 41 59 69 70 70 67 62 61 63 63 62 60 59 61 68 68 60 56 61 67 68 67 68 68 73 85 96 100 101 100 98 96 96 98 100 99 99 100 100 100 100 100 100 100 100 100 100 100 100 100 100 100 100 100 100 100 98 96 92 88
64 79 83 69 60 61 60 62 69 74 75 73 64 50 39 37 40 41 40 40 39 33 30 31 37 48 60 69 72 71 65 60 60 60 58 56 55 55 61 64 58 53 58 66 68 67 68 67 67 75 89 98 101 100 99 99 98 98 99 100 100 100 100 100 100 100 100 99 100 100 100 100 100 100 100 100 100 100 100 100 100 100 100 97 92
61 73 75 65 60 61 60 64 73 78 80 75 60 45 37 38 42 45 43 41 41 39 36 37 44 53 61 68 71 68 62 58 58 57 56 54 51 53 56 50 43 48 62 69 68 67 66 65 68 78 90 99 101 100 99 99 99 101 101 99 99 100 100 100 101 100 99 99 100 100 100 100 99 99 100 100 100 100 100 99 100 100 99 98 96
60 68 68 60 58 60 61 67 76 82 82 72 54 41 38 42 48 52 49 45 45 44 40 39 47 58 66 70 70 64 58 55 55 56 56 54 50 48 43 36 40 57 69 69 67 66 64 63 67 78 91 100 100 99 100 99 99 100 100 99 98 98 99 101 100 98 98 99 100 100 100 100 99 100 100 100 100 100 100 99 100 100 98 98 98
56 63 61 54 54 56 60 69 79 83 77 61 46 40 41 46 53 55 50 46 47 45 40 39 48 61 69 71 69 63 57 54 53 55 57 54 49 41 29 27 44 63 67 67 69 66 62 62 67 78 93 100 99 99 100 100 100 100 100 100 99 97 98 100 99 97 98 100 100 100 100 100 100 100 100 100 100 100 100 100 99 98 98 99 98
59 61 58 53 54 56 61 71 79 77 65 50 42 42 45 48 50 48 45 45 46 43 38 40 52 65 71 71 68 64 59 54 52 54 57 56 49 34 21 26 48 61 61 65 69 65 61 63 68 80 95 101 99 100 101 100 100 100 100 100 100 99 99 100 99 98 100 100 100 100 99 99 100 98 96 98 100 100 100 100 99 99 100 100 97
63 64 63 62 59 55 58 68 73 65 53 45 41 43 46 47 45 44 43 44 45 42 37 42 57 69 72 71 69 65 61 55 52 55 58 58 50 32 20 34 57 66 63 66 68 64 62 63 68 81 96 101 99 100 101 100 100 101 100 100 100 100 100 100 100 100 100 100 100 100 98 98 99 96 92 93 98 100 99 99 99 100 100 98 95
68 66 66 66 60 53 54 61 62 53 46 42 40 41 44 45 43 43 42 42 44 41 37 41 56 67 70 70 67 63 57 52 53 56 59 60 51 31 23 45 68 69 66 70 70 64 61 63 69 83 96 100 100 100 100 100 100 100 100 100 100 100 100 100 100 100 100 100 100 101 99 99 101 99 95 94 96 98 98 97 96 97 99 97 94
70 64 59 57 53 50 52 54 52 46 43 41 38 38 42 45 44 42 40 40 42 41 38 41 52 64 70 70 65 58 51 48 53 57 58 61 53 31 27 53 72 69 68 73 70 63 62 64 71 84 95 100 101 100 99 100 101 100 100 101 100 100 100 100 100 100 100 100 100 100 100 99 99 100 99 97 97 98 98 97 96 97 99 98 96
64 55 50 49 49 49 49 47 44 42 40 38 36 38 42 43 42 39 37 38 41 41 39 43 53 62 69 72 69 61 51 49 56 59 59 63 56 34 32 58 72 68 69 73 68 62 63 64 71 85 97 100 100 100 100 100 100 100 100 100 99 99 100 100 100 100 100 100 100 100 99 96 94 96 98 98 98 100 99 99 99 99 97 96 97
55 49 48 48 46 45 43 40 39 39 37 36 38 42 42 40 38 36 35 38 41 40 42 50 59 66 71 73 72 66 57 55 60 60 60 65 57 35 37 62 74 69 70 73 67 62 63 63 69 83 95 100 101 100 100 101 100 100 101 100 99 99 99 99 100 100 100 100 100 100 100 96 92 94 98 98 97 97 95 94 96 97 96 98 99
51 45 41 36 32 30 32 34 36 36 36 38 41 42 41 40 40 37 35 37 40 40 46 56 63 68 73 75 74 71 66 64 63 60 60 66 57 37 40 66 76 70 72 73 66 61 63 64 67 77 88 97 101 100 99 101 100 100 100 100 100 100 99 98 100 100 100 100 100 100 101 99 96 96 99 100 99 98 95 95 97 98 99 100 100
37 31 25 21 19 21 27 34 37 37 40 42 42 39 38 40 41 37 34 36 38 41 50 60 63 66 74 78 76 74 71 67 64 60 63 68 57 38 43 67 76 71 73 73 65 61 63 64 66 73 80 88 96 99 100 101 100 100 101 100 100 100 99 98 100 100 100 100 101 100 100 101 100 100 100 100 100 100 100 100 100 100 100 100 100
25 22 20 20 22 25 31 35 36 39 43 43 38 34 35 39 39 35 34 36 38 43 54 62 63 67 74 77 77 76 72 68 65 63 65 69 57 39 44 67 76 72 73 72 64 60 62 62 65 71 75 81 89 95 98 100 100 100 100 100 99 99 98 97 98 98 98 99 100 100 99 99 100 100 100 100 100 100 100 100 100 100 100 100 99
25 25 26 27 30 32 33 33 36 41 43 38 34 34 36 36 35 33 33 36 39 45 54 60 63 68 74 75 76 77 73 69 68 67 68 69 57 39 44 66 73 70 71 69 60 56 59 60 61 66 70 74 82 90 95 100 101 99 99 98 96 96 96 95 96 97 97 96 97 97 98 98 99 100 100 100 100 100 100 100 100 100 100 100 100
30 30 31 33 35 34 31 31 35 38 36 34 34 37 36 33 31 30 32 37 40 45 52 58 63 71 75 75 76 77 74 71 71 69 68 69 56 39 43 63 70 67 68 66 56 52 55 56 58 62 65 67 73 81 89 96 99 97 95 95 93 93 94 95 95 95 94 92 92 93 94 95 97 98 99 99 100 100 100 100 100 100 100 100 100
35 34 34 37 37 34 31 31 32 33 32 34 36 37 35 32 29 28 32 37 41 45 50 57 65 73 76 75 77 77 74 74 74 70 68 69 55 37 42 61 68 65 66 61 52 50 54 54 55 58 61 63 67 71 77 87 92 93 92 92 91 93 94 94 93 92 91 90 90 90 90 91 93 93 94 94 96 98 99 99 99 100 100 100 100
36 34 36 40 41 37 34 33 33 34 35 36 37 38 36 34 32 32 34 38 42 46 49 55 66 75 75 75 78 78 75 76 75 69 68 68 53 35 41 60 67 64 63 58 49 48 52 52 52 55 57 59 62 63 66 74 81 85 87 89 89 91 92 91 90 90 90 89 89 87 87 88 90 90 91 91 92 95 97 98 99 100 100 99 98
35 36 40 44 44 42 38 36 38 39 39 38 38 38 37 36 35 36 37 39 43 47 49 53 63 72 73 75 79 79 76 75 72 65 66 66 49 32 40 59 64 61 60 55 47 47 50 50 50 51 52 54 57 58 60 64 69 73 79 83 85 88 89 89 88 88 88 88 88 87 86 86 87 88 89 90 90 92 94 95 97 98 98 97 96
39 41 43 45 46 46 42 39 38 39 40 41 40 38 38 37 36 36 39 40 42 46 49 50 55 63 67 72 76 75 72 70 65 61 65 64 45 29 39 58 62 58 56 51 45 45 48 47 46 47 48 49 51 52 54 57 60 63 68 73 78 81 84 84 84 85 85 84 84 84 84 84 85 87 88 89 89 90 91 91 92 93 93 93 93
42 42 42 43 45 45 43 40 39 38 39 41 42 39 38 37 36 36 39 39 40 44 47 47 48 54 62 67 70 68 65 61 57 58 64 61 40 27 39 56 57 54 53 48 43 43 45 44 42 44 44 44 45 46 47 50 53 56 59 63 67 71 74 75 76 77 77 76 77 78 78 79 81 83 85 87 87 88 89 89 89 89 89 89 89
42 42 42 40 38 37 36 36 36 37 37 38 39 38 37 36 36 37 38 39 40 43 45 43 43 47 53 59 62 63 60 56 53 57 64 57 35 24 38 52 53 50 50 46 40 39 41 40 40 41 41 41 42 42 43 45 47 49 52 54 55 58 61 63 65 66 66 67 68 68 69 71 74 76 78 80 82 83 84 85 85 85 85 85 84
Wind_Speed
12 13 14 15 15 14 13 12 12 12 11 11 11 10 8 6 4 2 1 2 2 3 3 4 4 4 4 5 6 6 6 6 8 9 9 8 8 10 13 16 18 18 17 15 13 13 12 12 12 12 13 14 15 16 16 15 14 13 12 12 12 12 12 12 13 15 15 15 15 15 16 18 18 18 18 18 17 16 16 16 16 17 17 18 18
13 15 15 15 14 12 11 10 10 9 9 10 9 9 8 6 4 2 1 1 2 3 4 4 5 5 5 6 6 6 6 7 8 8 8 8 10 12 16 19 21 21 19 16 14 13 12 12 12 12 13 13 13 13 12 11 10 11 11 12 12 13 14 14 15 16 16 15 14 13 14 16 17 18 19 20 20 21 20 20 20 19 19 20 20
15 16 16 14 12 10 9 8 7 7 8 9 8 7 7 6 4 2 1 1 3 3 4 5 5 5 5 5 5 6 7 8 8 8 8 10 12 14 18 21 23 23 20 17 14 13 13 12 12 13 12 12 11 11 10 9 10 11 11 12 13 14 14 15 15 16 17 17 15 14 14 15 15 15 15 16 17 19 20 21 21 21 21 21 22
16 16 15 13 11 9 7 6 6 7 8 7 6 6 6 5 4 2 2 3 4 4 5 6 6 5 5 5 5 6 7 8 8 9 10 12 14 17 20 23 25 25 22 18 16 15 14 13 12 12 13 12 12 12 11 11 10 11 12 13 14 14 14 15 16 17 18 19 19 18 17 17 17 16 15 15 15 15 16 17 18 19 19 20 21
16 16 15 13 11 7 5 5 6 6 7 6 5 5 5 5 4 3 4 4 5 6 7 7 6 6 5 4 5 6 7 8 9 10 11 13 15 19 22 25 27 26 22 19 18 17 16 15 13 13 14 14 14 14 13 13 13 13 14 15 15 16 16 17 19 19 20 21 22 21 19 18 18 17 16 17 17 18 18 18 18 19 20 20 20
16 15 14 13 10 7 5 5 6 5 5 4 4 4 4 4 4 4 4 6 7 7 7 7 7 6 5 4 4 5 7 8 9 10 12 14 17 20 23 26 27 23 20 18 17 17 17 16 16 16 16 17 17 17 17 18 18 17 17 17 18 19 20 21 21 22 22 23 24 23 22 21 20 20 19 19 20 21 22 22 22 22 22 22 22
16 15 14 12 9 7 7 7 6 5 3 3 3 4 3 4 4 5 6 7 8 8 8 7 7 7 6 3 3 5 6 7 9 11 13 15 19 22 25 28 25 20 18 17 17 17 18 18 18 19 19 20 21 21 21 22 22 21 20 21 22 23 24 24 24 24 24 25 26 26 25 25 24 24 23 22 22 22 21 22 22 22 21 22 22
16 15 13 11 9 8 8 7 6 4 2 2 3 4 4 5 6 7 8 9 9 9 9 8 7 6 4 2 3 5 7 8 10 12 14 17 20 24 27 27 23 19 17 16 16 17 18 19 20 20 21 22 23 24 23 23 24 25 25 25 25 26 27 27 26 26 26 27 27 28 28 28 28 27 26 24 23 20 19 19 21 21 20 20 20
16 16 14 11 8 7 7 6 5 3 2 1 3 4 5 6 7 8 9 10 10 10 9 8 7 5 3 3 5 6 8 10 11 13 15 18 21 25 26 23 20 19 18 17 17 17 18 19 20 21 22 22 23 24 23 23 24 25 26 26 26 26 27 27 27 26 26 27 27 28 28 28 28 28 26 23 20 19 18 18 20 20 18 18 18
16 17 15 12 9 8 6 4 4 3 1 2 4 5 6 6 7 9 10 10 10 9 9 7 6 4 3 4 6 8 9 11 13 14 16 19 23 25 22 19 19 20 20 20 19 18 19 19 20 20 21 22 22 22 22 22 21 20 20 21 21 22 23 24 25 25 26 27 28 28 28 28 28 28 25 20 17 17 17 16 17 17 16 16 16
16 17 16 14 11 9 6 4 3 2 1 4 5 5 6 7 8 9 10 10 9 7 6 4 3 3 4 5 7 8 10 12 13 15 18 21 23 22 19 19 21 23 24 24 23 22 22 21 20 20 20 21 21 22 21 21 20 18 17 18 19 20 22 24 26 27 27 28 29 29 29 29 27 25 23 19 15 14 15 15 15 16 15 15 16
15 17 16 13 11 10 8 6 3 1 2 4 5 4 5 7 9 10 10 8 6 3 2 2 2 3 5 5 6 8 10 12 13 16 20 22 21 19 20 22 24 26 27 27 26 26 26 24 23 21 21 21 21 22 22 22 22 22 21 22 22 22 23 25 27 28 29 30 30 29 28 28 25 22 20 18 15 14 16 16 16 15 14 13 15
14 16 14 13 11 10 10 8 5 3 3 4 5 6 7 8 9 10 8 5 2 1 2 3 3 4 5 5 7 9 11 12 15 18 19 18 18 20 22 24 26 28 29 28 28 27 26 26 25 23 21 20 20 20 21 20 20 21 20 20 20 19 19 19 21 23 26 28 28 27 25 23 21 18 16 16 16 16 17 17 15 14 12 11 13
13 14 13 12 12 11 10 8 6 4 4 4 5 7 8 8 8 8 6 3 0 1 3 4 4 4 6 7 8 10 11 13 16 17 17 17 19 22 23 25 27 28 28 27 26 25 25 25 24 22 21 20 20 20 21 21 21 21 20 20 19 17 16 15 15 17 20 22 23 22 21 19 18 16 14 14 16 16 17 16 14 13 11 10 11
11 12 12 12 11 11 9 7 5 4 5 4 5 7 7 7 7 6 3 1 1 3 4 5 5 6 7 8 9 10 12 13 14 16 17 19 21 23 24 26 28 27 25 23 23 22 23 23 22 22 21 20 20 20 21 22 22 22 22 21 21 20 18 16 16 17 18 19 19 20 19 17 17 17 15 15 16 16 16 16 14 13 11 10 10
11 12 11 10 10 8 6 4 5 5 5 5 6 6 6 5 5 3 2 2 3 4 5 5 6 7 8 9 9 10 11 12 14 17 19 21 22 24 26 27 26 24 22 20 20 20 20 21 21 20 20 20 21 21 21 22 22 22 23 23 23 22 21 19 19 19 19 19 19 19 19 18 18 18 18 18 18 18 16 15 14 12 12 12 10
12 12 11 10 8 6 4 4 5 5 5 6 6 5 4 3 2 0 2 3 4 5 7 7 8 8 8 8 8 10 12 14 16 18 20 22 24 25 26 24 22 20 19 18 18 18 18 19 20 20 21 21 22 22 22 23 24 24 25 25 24 24 22 21 20 20 19 20 20 20 20 20 20 20 20 20 20 20 18 16 14 12 12 13 11
13 12 11 9 8 5 4 4 5 5 5 5 6 5 3 2 1 0 2 4 6 7 8 8 8 8 8 9 10 11 13 15 17 19 21 23 24 24 22 20 18 17 18 18 17 17 17 17 18 20 22 22 23 23 23 23 24 25 25 25 25 24 23 22 21 21 20 21 21 20 20 19 20 20 20 20 20 20 20 18 15 14 14 13 11
13 12 11 9 7 5 4 4 4 5 5 5 4 3 3 2 0 1 4 6 7 8 7 7 7 8 10 11 12 13 15 16 18 20 22 22 22 20 19 17 16 17 18 19 19 17 16 16 17 19 21 22 22 22 21 22 23 24 24 25 25 24 23 22 22 23 23 23 22 22 21 19 18 19 19 18 18 18 18 18 17 16 16 14 12
13 12 11 8 6 4 4 4 4 4 3 2 3 3 3 1 2 4 6 7 7 6 6 6 8 10 11 12 14 15 16 17 19 20 19 19 18 16 15 15 16 17 19 20 21 20 18 17 19 20 21 22 22 21 21 21 22 23 24 24 24 23 22 21 21 21 23 24 23 23 22 19 17 17 16 16 16 16 17 17 17 16 16 15 14
14 12 10 7 5 5 6 5 5 3 1 3 4 3 1 2 4 5 6 5 5 5 5 7 10 12 13 14 15 15 16 16 16 16 16 15 15 14 13 14 17 19 20 21 21 20 19 19 21 22 22 23 23 24 24 23 22 23 24 24 25 24 23 22 21 19 22 24 23 22 21 19 17 16 14 14 14 14 15 15 16 16 16 17 17
15 12 9 7 6 6 6 5 4 1 3 4 2 1 2 4 5 6 5 5 5 5 6 9 11 13 13 14 14 14 14 13 13 14 14 14 13 12 13 15 17 20 21 21 21 20 20 22 24 25 26 27 27 27 26 25 25 26 25 25 25 25 24 23 21 21 23 24 22 20 20 19 17 16 15 14 14 13 13 13 14 14 15 16 16
15 13 10 8 7 6 6 5 2 1 3 3 2 3 4 5 5 5 5 6 7 6 8 10 11 12 13 12 12 12 11 12 13 13 14 13 12 12 13 15 18 20 21 20 20 21 23 25 27 29 29 30 29 29 28 27 26 25 24 23 24 25 24 22 20 22 24 23 20 19 19 18 17 17 16 16 15 15 14 14 13 12 13 13 13
16 14 11 8 7 6 5 4 3 3 3 3 4 5 5 4 4 4 6 7 7 7 8 10 10 10 11 10 10 10 11 12 12 12 12 12 12 12 14 15 16 17 18 19 21 23 26 27 29 30 31 31 31 30 28 25 22 21 21 21 22 22 20 19 20 23 23 20 18 18 18 17 17 17 17 18 17 15 14 14 14 14 14 14 13
17 14 11 9 6 5 6 6 6 5 4 5 5 5 4 3 3 5 6 7 6 7 7 8 8 9 9 9 10 11 11 11 11 11 11 12 13 13 14 14 15 16 18 20 22 25 27 28 30 31 31 31 30 28 25 20 18 18 19 19 20 20 19 19 20 21 20 18 16 17 18 18 17 15 15 17 17 16 15 15 15 14 14 15 14
15 13 11 9 7 6 7 8 8 7 6 5 4 2 1 2 4 5 5 5 5 5 6 7 9 9 9 10 10 10 11 11 10 10 12 13 14 15 15 14 15 17 20 22 25 27 28 30 31 32 32 31 28 23 18 16 15 17 19 20 21 20 18 17 17 18 17 17 16 16 16 16 15 14 13 14 15 16 17 17 16 15 14 15 13
14 13 11 9 7 7 8 9 8 7 6 5 3 1 1 3 3 3 3 2 3 4 5 8 11 11 10 10 10 10 10 11 11 12 14 15 17 17 16 16 18 20 23 25 27 29 30 31 32 33 34 32 28 20 14 12 14 17 20 21 22 20 16 14 13 14 14 15 15 14 13 13 13 13 13 13 12 13 15 17 17 16 15 14 13
14 12 9 8 8 9 9 9 8 7 6 5 3 2 2 2 2 2 1 1 3 5 7 11 13 12 10 8 8 9 11 12 13 15 16 17 19 19 18 20 22 23 26 28 29 30 31 32 34 35 35 33 28 22 18 16 16 18 20 21 20 17 13 11 10 11 12 13 13 14 13 13 13 12 12 12 11 11 12 15 16 16 16 15 14
13 9 8 8 9 10 10 8 7 6 5 4 4 2 1 0 2 2 2 3 6 8 10 12 13 11 8 8 8 10 12 13 14 16 17 18 20 21 21 22 24 25 27 28 29 31 33 35 37 38 37 32 26 23 23 22 20 20 19 18 17 14 12 12 12 13 14 14 15 16 15 15 14 12 11 10 8 8 9 10 11 12 13 14 14
11 9 8 9 10 10 10 9 7 5 4 4 3 2 1 1 2 3 5 6 8 9 11 13 13 10 7 8 10 12 13 14 14 16 17 18 20 22 22 23 25 26 26 27 28 31 35 37 38 38 36 30 23 21 23 23 23 22 19 16 15 13 13 14 15 15 16 16 16 16 16 15 14 13 11 9 8 6 7 7 8 8 8 9 10
10 9 10 12 11 10 10 8 7 6 5 5 4 3 1 1 2 4 6 7 8 10 11 13 12 9 7 8 10 11 12 13 14 16 17 19 21 21 22 23 24 25 25 26 29 33 36 38 39 37 35 29 23 21 22 22 22 23 21 18 16 14 14 16 17 17 17 17 18 17 15 13 12 11 11 10 8 7 7 7 6 5 5 5 6
9 10 13 14 12 11 10 8 8 8 7 6 5 4 2 1 3 4 6 6 7 9 11 12 11 9 8 8 10 10 11 12 14 16 18 20 21 21 21 23 24 23 24 26 30 34 37 38 38 36 33 28 24 23 22 21 20 22 22 19 15 13 14 16 18 19 20 20 19 17 13 11 10 9 10 9 7 7 7 6 4 4 5 4 3
9 12 16 15 13 12 11 10 9 9 8 7 6 4 2 1 2 3 4 5 6 8 10 11 9 8 8 10 11 11 10 11 14 16 18 20 21 21 22 22 22 21 24 28 32 36 38 38 36 34 31 27 24 23 22 21 20 20 22 20 17 14 14 16 18 21 22 21 18 15 13 12 11 10 9 8 6 5 5 4 3 4 4 4 4
11 14 15 14 13 12 11 11 10 10 9 8 6 4 2 1 1 2 2 3 4 6 8 9 8 8 8 10 11 10 10 11 14 16 18 20 22 22 22 22 21 22 25 30 34 38 39 37 35 33 29 24 22 22 22 21 20 19 20 21 19 16 15 17 19 21 22 21 17 15 15 15 15 13 11 8 5 3 4 4 3 4 4 5 4
14 14 14 13 12 12 12 11 11 11 10 8 6 4 3 3 2 2 2 2 3 5 6 8 8 8 8 10 10 9 9 11 13 16 18 20 22 23 24 24 25 26 28 31 35 38 39 36 34 31 26 22 20 21 21 21 20 19 19 20 20 18 18 19 20 21 23 21 17 15 17 19 17 14 13 10 6 5 6 7 6 7 7 7 6
14 15 15 13 13 13 13 12 12 11 10 8 6 5 5 4 3 2 3 3 3 4 6 8 7 7 9 10 10 9 9 11 13 15 18 21 24 25 26 26 27 28 30 33 36 38 38 36 33 29 24 20 19 20 20 19 19 19 19 20 20 19 20 21 21 22 24 23 18 16 18 20 18 15 14 13 10 9 9 9 9 9 8 8 8
14 14 13 13 13 13 13 14 13 12 9 8 7 6 6 5 3 3 3 2 2 3 6 8 7 6 8 9 9 9 9 10 12 15 18 21 23 25 25 25 25 27 30 33 36 38 38 36 32 28 23 19 18 18 19 18 18 18 18 19 19 19 20 21 21 22 23 23 21 18 18 19 17 15 14 14 12 10 10 9 10 10 10 10 9
12 13 12 13 14 14 15 15 14 12 10 8 7 6 6 5 3 2 1 2 1 3 6 8 7 6 7 7 8 9 10 10 11 14 17 21 24 25 25 23 24 27 30 33 36 37 37 35 32 28 23 20 18 18 18 17 17 18 18 19 19 20 21 22 22 22 21 22 23 20 18 18 17 15 15 15 13 11 11 11 12 12 12 10 8
13 13 13 13 13 14 15 14 13 12 10 9 7 6 6 5 3 2 1 1 1 3 6 7 7 7 7 7 8 9 10 10 11 15 18 21 24 25 24 23 24 27 29 32 35 36 36 35 32 29 25 21 19 17 17 16 16 17 18 19 20 21 22 23 24 23 22 22 23 21 19 18 17 16 16 16 15 14 14 14 14 13 11 9 7
14 14 14 14 14 15 14 13 13 11 10 8 7 6 5 4 3 2 2 1 0 2 6 7 7 7 8 7 7 9 10 10 12 15 17 21 24 25 23 22 24 27 29 31 34 35 35 35 33 30 28 25 21 18 17 16 16 17 18 19 21 23 23 23 23 23 21 20 21 20 19 18 17 17 17 16 15 14 14 13 12 11 9 9 8
15 15 15 15 14 14 14 13 12 11 9 8 6 5 4 4 3 2 2 2 0 2 5 6 6 7 8 7 7 8 9 10 12 14 17 20 23 23 22 21 24 26 28 30 32 33 34 35 33 32 29 27 24 20 18 16 17 18 19 21 23 24 23 22 22 22 20 19 19 19 18 17 16 15 14 13 13 13 12 11 11 10 9 10 10
15 16 15 14 14 14 14 14 12 11 9 8 5 4 5 5 3 2 1 2 1 2 4 4 5 6 7 7 7 8 9 10 12 14 16 19 22 22 20 20 22 25 27 28 30 31 33 34 34 33 31 28 25 22 19 18 18 19 20 22 23 24 23 23 23 22 20 18 17 18 17 17 16 15 14 14 15 16 15 15 14 13 13 13 13
15 16 15 14 14 14 14 13 12 11 9 7 5 5 5 5 3 2 2 2 1 2 3 3 4 5 6 6 7 8 9 10 12 14 15 18 20 21 19 19 21 23 25 26 28 30 31 32 33 34 33 31 28 24 21 19 18 18 20 22 23 23 23 23 23 23 22 18 17 17 17 16 17 17 17 18 19 19 19 19 18 18 17 16 15
17 16 16 16 15 14 13 12 12 11 9 7 6 6 5 4 3 3 3 3 1 2 2 2 3 4 6 6 6 7 9 10 11 13 15 16 19 20 18 18 20 22 23 25 27 28 30 31 32 33 34 33 30 27 24 21 19 19 20 22 23 23 23 23 23 23 22 19 18 18 17 17 18 18 19 20 21 21 21 20 19 18 18 18 17
18 17 17 17 16 14 13 12 12 10 10 9 8 6 4 4 4 4 4 3 1 1 2 2 2 3 5 5 5 6 7 8 10 12 14 15 18 18 17 16 18 21 23 24 25 26 29 31 32 33 34 34 32 30 26 23 21 20 21 22 23 23 23 22 22 21 20 20 19 19 19 19 20 20 21 22 23 24 23 22 20 19 19 20 20
18 17 17 16 15 14 13 12 11 11 11 10 9 6 4 4 4 4 3 2 1 1 2 1 0 1 3 4 5 5 5 7 9 11 12 14 16 17 15 15 17 20 22 23 24 25 27 30 32 33 34 34 33 31 28 25 23 22 21 22 23 23 23 22 20 20 20 20 20 21 21 22 22 22 22 23 24 25 25 24 23 22 21 21 21
19 17 16 15 15 13 12 12 12 12 11 10 8 6 4 4 5 4 3 1 0 2 2 1 1 1 1 3 3 4 5 6 8 10 10 12 15 15 14 14 16 19 20 21 22 24 26 28 30 32 33 33 32 32 30 28 26 24 22 22 22 22 22 21 20 20 20 20 21 22 23 24 24 23 23 24 25 25 25 25 24 23 22 22 21
20 18 16 15 14 13 12 11 11 11 10 9 8 7 4 3 4 3 2 1 0 2 3 1 2 2 1 1 2 3 5 5 7 8 9 11 13 14 12 13 15 17 19 20 21 23 25 27 29 30 32 32 33 33 32 31 29 27 25 23 22 21 21 21 21 21 22 22 22 23 25 25 25 25 25 25 25 26 25 24 23 23 23 23 23
20 17 16 15 14 12 11 10 9 9 9 9 8 7 5 3 2 2 1 1 1 2 2 1 1 1 0 1 2 4 5 5 6 7 7 9 12 12 11 12 14 16 18 19 20 22 24 26 27 29 31 32 34 34 35 34 33 31 29 26 24 22 21 21 21 22 22 23 24 24 25 26 26 26 26 27 27 26 26 25 24 23 23 23 23
19 17 15 13 13 12 10 9 9 8 9 9 8 7 6 4 3 2 0 1 1 2 2 2 0 1 1 2 3 4 5 5 6 5 6 8 11 11 10 11 13 15 17 19 19 21 23 25 27 28 30 32 34 36 37 37 37 35 33 31 28 26 25 24 24 24 24 25 25 26 26 27 27 28 28 27 27 27 27 26 25 24 24 24 23
18 17 14 12 12 11 11 11 11 10 9 9 8 7 6 5 4 3 1 1 2 2 3 2 1 1 2 3 4 4 4 4 5 4 5 7 9 9 9 10 12 14 16 18 18 20 22 24 26 28 30 32 34 36 37 38 39 38 36 35 33 32 30 29 28 28 28 29 29 30 30 30 31 30 30 30 29 29 28 28 27 27 27 26 25
Wind_Direction
133 135 134 131 126 121 117 114 112 114 114 108 101 97 98 103 115 147 197 230 256 266 271 278 296 309 304 301 306 308 309 316 321 323 324 323 327 336 339 339 338 338 335 328 320 312 300 288 282 283 287 290 293 298 303 306 307 308 308 309 309 308 306 304 301 299 297 293 290 285 282 279 277 276 276 274 272 270 266 262 257 254 253 252 253
136 139 139 136 132 129 128 123 117 115 110 99 89 83 84 93 107 121 197 255 272 274 282 303 319 323 321 317 317 317 321 328 331 329 325 326 332 338 338 338 338 338 337 332 324 318 309 298 286 282 286 291 295 298 300 299 299 301 307 309 309 310 311 311 311 309 307 304 298 292 288 284 281 280 279 278 276 273 272 272 270 267 263 261 260
140 143 144 142 140 142 140 128 120 115 104 92 81 75 73 79 89 82 14 301 294 294 301 313 322 326 330 329 326 326 331 337 337 332 328 330 334 338 339 340 340 341 340 337 333 328 320 309 295 289 291 295 298 301 299 294 287 285 292 301 303 306 308 308 308 308 308 306 303 302 299 296 293 290 287 284 281 278 276 275 276 275 272 268 266
146 148 150 149 148 152 148 133 125 116 102 90 78 68 63 65 75 60 23 359 336 327 326 326 332 341 347 343 334 335 341 345 340 333 334 336 337 340 341 340 341 343 342 339 336 333 328 321 307 298 297 298 299 298 296 294 289 283 284 289 293 295 298 300 302 304 304 303 304 305 304 302 301 300 297 294 291 289 284 281 279 278 276 273 270
155 156 158 159 158 160 154 138 127 113 101 93 74 59 56 56 51 28 8 356 340 332 331 332 338 346 351 348 345 351 354 351 344 339 339 339 339 339 339 338 339 341 340 337 333 330 327 323 315 306 302 301 301 299 296 294 292 290 288 288 288 288 291 294 298 300 301 302 303 303 303 301 300 301 301 299 296 295 293 291 289 286 281 277 274
164 165 166 166 164 160 150 134 120 108 98 88 61 51 51 39 18 352 341 340 335 332 332 332 336 340 341 348 358 2 360 354 349 344 340 338 338 336 335 336 338 339 337 333 328 324 321 317 313 308 303 301 299 298 297 295 293 292 290 288 288 289 292 294 297 298 299 299 300 300 301 301 300 300 300 299 298 297 296 294 293 291 288 284 278
169 171 171 168 163 154 141 125 112 107 98 75 46 35 23 358 340 331 332 336 334 331 328 327 330 331 331 345 5 1 354 348 344 340 338 336 335 333 333 335 338 340 337 331 326 322 318 314 310 305 300 297 295 295 295 296 297 296 294 292 292 293 295 296 297 298 298 298 299 299 301 302 301 301 302 302 300 299 298 296 293 292 291 289 284
173 173 174 171 163 152 139 125 118 117 100 58 24 4 349 336 332 331 331 331 328 324 322 324 328 329 328 340 353 351 345 340 339 336 333 332 330 331 333 336 340 341 337 332 329 324 319 315 310 305 301 297 294 293 293 294 295 297 296 295 294 294 295 296 296 296 296 296 297 298 299 300 301 302 304 304 303 302 299 296 294 295 294 289 285
176 176 178 177 170 158 145 134 131 133 112 31 350 343 336 329 328 327 326 325 322 318 315 319 322 320 318 334 342 345 343 338 335 332 328 327 328 331 334 339 343 343 338 333 329 324 320 317 313 309 305 300 296 294 293 290 290 291 293 295 296 296 295 294 294 294 295 295 295 297 298 299 301 304 304 303 302 301 298 295 295 297 295 290 286
178 179 182 183 179 172 161 150 150 157 188 317 324 327 326 322 321 321 320 320 318 313 309 311 310 305 317 338 341 341 339 334 331 328 325 325 328 333 337 341 345 345 341 336 330 324 320 317 314 310 307 303 299 296 294 292 290 290 293 296 298 299 298 296 295 296 297 298 299 300 300 301 303 306 304 302 300 298 297 295 293 293 292 292 290
175 179 183 185 184 183 183 182 178 180 300 326 327 322 317 313 313 317 318 318 317 312 310 312 303 303 324 334 335 334 332 330 326 323 322 325 329 335 340 343 345 345 342 338 333 329 326 323 320 316 312 309 304 299 296 294 291 291 291 290 289 290 292 295 297 298 298 298 298 298 299 302 305 305 303 301 299 298 298 296 291 288 288 287 289
174 179 183 186 189 193 197 201 209 255 315 325 318 305 303 309 315 318 318 321 323 320 331 341 316 308 320 327 331 332 331 326 320 317 321 326 332 339 343 343 342 341 339 338 335 332 330 327 326 324 320 317 313 309 306 302 297 296 295 293 293 291 290 292 294 295 295 293 292 294 297 301 303 302 301 300 299 302 306 308 305 297 289 285 292
177 182 186 190 196 200 203 211 227 254 292 313 302 291 296 305 315 318 320 331 349 344 339 335 309 302 316 328 332 333 330 322 317 318 324 332 339 341 340 337 336 336 336 335 334 332 331 329 330 332 332 331 329 326 323 320 316 315 315 314 314 311 305 298 292 289 288 288 290 293 297 299 298 296 297 297 299 305 310 315 316 308 299 296 302
181 184 187 193 198 202 207 216 230 254 286 297 287 289 294 301 314 320 326 347 5 300 326 327 323 324 330 336 336 331 324 317 317 325 334 340 339 337 334 332 332 334 334 334 335 334 334 335 338 342 345 345 343 339 336 333 331 331 331 331 329 326 322 314 300 291 290 291 293 295 296 295 293 293 294 294 299 305 309 313 315 313 310 308 312
185 185 187 190 195 201 210 223 245 272 285 281 282 295 300 310 323 321 316 315 273 303 332 339 343 343 336 337 334 324 317 318 327 338 341 339 335 331 330 330 331 334 336 338 339 338 338 341 344 346 347 347 344 339 335 331 330 329 328 326 326 325 324 319 307 302 303 301 299 298 296 292 289 291 293 295 299 302 304 307 311 313 312 312 319
190 187 187 186 191 203 216 240 269 283 291 293 302 314 316 326 339 320 277 283 297 319 339 341 340 337 333 333 327 320 323 331 339 341 337 333 331 328 328 331 334 338 341 343 342 342 342 343 342 342 341 340 338 334 330 325 323 321 320 318 318 317 317 314 307 305 305 303 301 300 298 293 289 289 291 294 297 299 299 302 309 311 308 309 319
192 189 187 186 191 204 224 253 272 285 303 312 320 332 341 350 10 334 278 298 316 331 337 337 335 337 338 339 334 333 337 339 337 335 332 329 328 328 329 334 339 343 347 348 347 347 345 341 338 335 334 333 332 330 326 322 320 319 317 316 315 314 313 310 305 303 301 299 299 299 297 295 291 289 290 291 294 295 294 297 304 303 300 303 312
193 191 191 190 193 206 236 261 277 293 307 319 331 352 30 57 79 247 301 320 333 338 340 341 343 349 352 349 346 343 340 336 333 331 328 327 328 330 333 339 346 350 352 354 353 348 344 339 334 331 330 330 330 329 327 325 324 324 323 320 319 318 317 314 310 305 301 299 298 296 295 294 289 284 283 285 288 289 290 294 297 292 290 294 301
195 196 195 190 192 212 248 265 278 297 308 326 352 31 81 103 207 302 325 334 341 345 348 352 354 356 357 353 350 345 340 336 331 328 327 328 330 334 339 346 355 358 356 354 352 347 342 339 337 336 335 334 332 330 330 329 328 328 327 325 323 322 322 321 319 316 312 306 301 297 296 295 289 282 277 278 282 283 283 287 289 284 284 286 288
200 202 197 187 192 227 259 277 291 307 318 2 54 98 131 153 325 338 341 345 352 357 358 360 1 1 357 352 348 344 338 333 328 328 331 334 336 341 348 352 354 356 355 351 347 345 343 341 341 340 337 333 330 326 326 325 324 324 323 322 320 320 320 318 317 318 316 312 308 302 298 297 293 287 279 275 278 277 274 277 278 276 277 280 282
205 204 195 182 197 238 266 288 304 318 17 84 105 140 156 9 2 2 2 2 3 2 2 2 0 356 352 348 345 341 335 332 332 336 341 343 345 349 353 352 350 351 351 348 345 345 343 339 336 334 330 326 323 321 320 318 316 315 314 313 313 312 311 311 313 316 316 315 312 304 296 292 289 287 282 276 273 271 270 272 272 269 269 272 278
210 206 195 188 207 239 269 290 300 342 98 108 123 138 52 36 30 27 24 12 360 1 3 359 354 350 349 348 344 340 339 342 347 351 353 353 351 351 352 351 349 347 345 344 343 342 338 333 330 328 326 324 322 320 319 316 313 311 310 309 307 304 301 302 308 315 316 317 315 305 296 290 283 280 278 272 265 263 265 269 271 272 271 273 276
214 212 203 199 217 246 269 272 267 105 114 124 108 79 67 57 49 38 16 357 358 4 359 351 349 350 350 348 345 348 355 1 1 360 358 355 352 353 353 349 345 342 341 341 339 335 332 329 327 325 324 322 321 319 317 315 313 311 310 307 303 301 300 301 306 312 315 318 316 309 302 297 287 279 274 271 266 262 260 262 266 270 272 275 279
214 216 214 212 227 245 244 215 175 144 139 128 97 84 77 60 39 16 351 348 358 358 350 349 350 350 349 351 359 8 12 10 5 1 359 357 357 355 349 342 340 339 338 336 333 331 331 330 328 327 326 325 322 319 317 315 312 312 312 309 306 306 307 306 308 312 314 316 313 306 304 304 297 286 276 272 270 267 263 260 262 265 267 271 275
212 216 220 225 233 225 198 172 157 155 149 123 100 84 69 39 4 345 338 342 350 349 348 351 351 350 357 8 17 20 18 14 8 3 3 5 0 351 343 339 338 336 334 334 334 334 335 335 333 332 332 331 328 325 320 315 314 318 321 322 321 318 314 309 309 311 314 315 311 305 304 306 303 295 283 275 272 271 267 263 262 265 268 271 275
209 208 214 226 230 205 180 168 162 160 149 126 111 97 42 349 336 332 331 337 351 357 358 359 359 3 12 19 24 24 20 15 11 8 9 7 358 349 344 338 335 334 334 336 339 341 341 340 339 339 340 342 342 338 327 317 320 330 334 333 334 332 325 318 315 313 314 316 314 310 310 310 306 301 293 283 276 272 269 266 265 264 264 269 274
208 204 211 221 215 189 173 168 164 158 148 138 137 169 270 314 327 330 329 346 13 20 17 14 13 14 18 23 30 30 20 12 9 8 7 3 356 350 344 339 338 340 340 341 344 345 345 344 345 346 348 351 353 354 346 334 336 341 339 336 338 338 334 328 323 321 323 325 324 322 322 319 314 307 300 294 287 278 272 268 266 264 262 264 267
224 214 216 215 196 177 169 169 166 157 153 160 179 215 257 314 343 346 2 51 51 45 33 23 18 17 20 29 38 33 18 10 8 7 4 360 354 350 345 344 345 345 343 344 346 347 346 348 351 352 353 354 357 360 0 355 349 346 341 338 340 341 340 341 344 345 346 343 340 341 340 337 335 329 318 309 302 291 281 275 271 268 264 260 260
245 238 220 202 183 174 173 175 171 164 170 186 199 212 219 5 19 41 77 71 54 45 35 24 19 20 25 29 30 23 15 10 9 8 3 357 351 349 348 348 346 344 343 345 347 347 348 352 355 356 356 357 358 360 1 359 356 353 348 346 346 351 359 6 7 3 356 349 347 345 340 336 336 335 331 327 321 308 295 288 285 281 272 262 255
247 250 222 199 187 182 182 181 178 182 200 212 219 228 213 130 60 60 65 58 47 39 31 23 21 25 31 26 17 12 9 9 10 8 3 356 352 350 349 347 343 341 342 346 349 350 352 355 357 358 358 358 358 359 1 3 5 5 5 6 8 14 20 16 6 357 352 350 349 345 337 331 329 326 326 331 330 321 311 304 301 300 293 276 257
236 238 215 202 198 195 191 188 186 196 214 225 236 251 254 103 80 68 59 50 41 33 27 22 20 23 34 31 15 5 4 8 10 9 4 358 356 354 350 345 342 341 344 349 352 354 356 357 358 359 359 0 2 3 5 8 8 6 8 16 22 24 21 11 2 358 358 357 354 349 342 336 330 325 324 324 320 316 316 311 307 312 316 302 266
221 212 204 204 204 202 201 199 197 204 217 225 230 240 261 49 78 77 61 49 39 31 25 21 17 18 28 26 13 6 9 13 13 10 6 2 359 356 351 346 343 344 349 353 355 357 360 360 359 359 0 2 6 9 8 7 6 5 8 14 20 18 11 4 1 1 0 357 353 354 355 349 338 331 328 321 312 312 318 319 313 318 329 333 309
191 188 196 204 206 206 208 209 209 214 220 224 224 227 248 5 76 80 63 50 42 31 23 18 15 20 25 17 8 8 16 18 15 11 6 2 360 356 352 349 348 351 356 359 359 1 2 2 360 0 2 5 8 11 9 7 7 8 10 13 13 8 359 355 356 358 358 356 358 8 17 11 358 353 348 334 319 321 335 343 339 336 349 6 2
169 180 197 206 208 211 215 216 216 216 214 216 221 223 219 182 118 86 59 55 48 32 19 13 13 20 20 9 4 9 17 17 14 10 6 2 0 356 353 353 357 2 4 4 3 3 4 3 1 1 4 8 11 11 10 10 11 11 10 12 13 7 358 356 359 0 360 1 7 17 21 16 10 10 9 2 353 359 10 16 21 27 36 41 43
165 183 201 209 214 219 222 220 216 211 207 207 209 204 190 176 152 120 105 94 65 33 17 13 14 18 17 10 7 11 15 13 11 9 6 3 1 358 356 359 5 8 7 7 6 5 6 5 3 3 7 12 14 13 13 15 17 15 12 13 15 14 11 12 12 9 7 11 18 21 18 17 19 22 23 27 38 52 50 51 56 53 46 51 71
173 191 205 213 218 222 221 215 210 207 204 200 193 185 181 178 163 138 123 107 75 33 20 16 15 17 16 13 12 15 16 13 10 10 9 6 2 0 1 5 9 9 8 7 7 6 7 7 5 5 10 15 17 16 18 21 23 21 17 15 17 19 18 16 15 14 14 19 26 25 18 20 26 31 35 43 58 66 62 61 62 56 53 67 90
185 199 206 211 214 214 209 205 202 201 198 192 184 180 177 170 155 140 122 99 63 26 20 18 18 19 16 15 18 23 23 19 14 12 10 7 3 3 5 9 11 10 9 8 7 6 8 9 8 9 13 19 20 19 20 24 26 25 22 20 21 23 20 17 17 19 19 23 30 31 25 26 30 34 40 50 61 66 67 66 65 63 70 83 94
196 201 202 205 206 203 201 200 199 196 192 187 179 174 170 162 151 145 126 94 55 17 15 17 22 27 25 24 30 33 30 23 17 12 8 5 4 5 8 12 13 12 11 10 8 8 9 11 12 14 17 23 24 21 21 25 28 28 27 27 27 28 24 22 23 25 25 28 34 35 33 34 36 39 45 52 59 65 70 73 73 75 82 86 85
195 194 196 200 200 199 201 202 198 192 187 181 169 158 159 160 163 180 170 115 68 9 11 17 24 31 34 37 40 38 34 26 17 11 7 7 7 7 9 13 15 14 13 11 10 10 12 14 17 19 22 26 27 24 24 28 32 33 34 34 34 32 27 25 26 27 29 33 37 38 39 42 47 51 55 58 62 67 72 75 77 79 82 80 76
189 189 194 197 198 200 202 200 192 185 179 172 158 149 154 162 164 166 158 141 108 5 12 20 27 32 38 42 41 36 32 25 18 13 10 10 9 8 11 15 17 15 13 13 12 13 14 17 21 23 25 28 29 29 30 34 38 39 38 37 37 34 31 29 30 30 31 36 39 39 41 44 50 58 60 58 59 63 67 71 72 72 75 77 77
189 191 193 194 196 197 194 188 181 175 169 163 154 152 167 175 165 150 152 167 168 11 17 23 27 33 40 43 39 32 26 20 16 15 14 11 9 10 13 17 18 16 15 14 15 16 17 20 23 25 27 29 31 32 35 39 43 44 41 38 37 36 33 33 34 34 36 40 41 41 43 42 44 50 53 50 53 58 62 64 67 69 75 81 82
189 189 185 182 182 182 180 177 172 166 164 165 161 159 169 173 168 158 165 173 153 19 20 21 22 31 41 44 37 31 26 21 19 18 16 12 10 12 16 19 20 19 17 16 17 19 20 22 26 28 28 29 30 31 34 38 42 44 42 39 38 37 34 33 35 36 39 45 47 45 46 46 47 52 55 58 63 67 67 68 72 75 79 83 85
183 180 172 165 164 167 170 171 167 163 165 168 163 156 160 166 176 193 190 182 166 20 18 11 11 28 39 39 31 27 26 23 22 21 17 12 11 13 18 22 23 22 20 19 21 23 24 26 29 31 31 31 31 31 32 34 37 41 42 41 40 38 36 35 35 34 36 44 51 53 53 55 60 64 67 68 71 73 73 74 78 81 83 84 86
174 169 161 155 155 160 166 167 164 162 163 162 156 152 158 174 194 200 189 185 197 7 6 349 359 27 36 31 23 22 24 24 23 22 18 13 12 14 19 25 27 25 24 24 25 27 27 30 32 33 33 34 34 33 34 35 37 40 42 42 42 41 39 37 37 36 35 40 50 58 63 66 69 71 73 73 74 75 75 76 80 84 87 89 88
170 165 159 154 155 159 163 161 158 159 160 158 155 150 152 174 191 187 178 181 229 342 349 335 350 24 31 24 14 14 19 22 23 21 17 13 13 15 21 28 30 29 28 29 30 31 31 32 34 35 35 35 35 36 37 38 40 42 44 45 46 46 43 41 41 42 41 43 51 59 66 70 72 73 75 76 77 77 78 78 79 83 87 90 93
169 166 161 158 157 158 157 154 155 158 159 158 156 151 140 141 151 156 160 177 253 347 6 11 337 2 15 11 4 8 17 20 20 20 17 13 13 17 23 31 33 32 31 33 36 36 35 34 35 36 36 36 36 37 38 41 43 45 47 49 50 51 49 47 47 50 51 52 56 61 65 69 72 73 76 79 81 82 82 82 82 82 85 88 93
164 162 163 163 160 158 154 150 150 155 157 159 163 162 146 124 124 131 140 167 258 5 24 57 185 226 323 353 357 11 22 19 17 19 19 14 14 19 27 35 37 35 36 39 42 42 40 39 39 39 39 39 39 40 41 43 45 47 48 51 53 55 56 55 55 57 58 59 62 66 69 70 72 74 77 79 82 83 84 84 85 86 88 90 92
156 157 164 170 170 166 159 152 151 156 162 167 174 178 171 136 119 119 109 85 26 10 20 46 192 218 266 350 10 27 31 24 20 23 22 17 17 24 33 41 41 39 41 45 48 48 46 44 43 43 43 44 45 46 47 47 48 49 50 51 53 57 59 61 62 64 66 67 67 69 71 71 72 73 74 76 79 81 83 85 88 90 93 94 95
153 157 166 175 177 175 170 165 164 168 174 180 187 192 195 188 161 138 83 32 360 350 1 4 224 213 180 66 48 46 44 33 26 27 25 21 22 29 40 46 45 44 47 52 54 54 53 51 50 49 49 50 50 51 51 51 52 52 53 54 56 59 62 65 66 67 69 71 71 71 73 74 74 73 73 73 74 77 79 81 85 88 91 94 96
155 158 165 172 176 178 181 184 185 188 192 197 202 206 209 211 209 201 360 360 345 335 342 344 340 135 116 101 83 69 54 36 29 33 32 27 28 36 47 52 50 49 53 58 60 60 59 59 57 56 56 56 56 56 56 55 55 55 56 57 59 61 63 66 68 69 70 71 72 73 75 77 77 77 77 76 77 78 79 80 82 84 86 88 90
158 160 164 170 174 177 182 189 193 197 202 205 207 210 213 217 220 222 251 312 319 320 327 333 5 115 119 113 103 88 60 37 37 46 42 34 35 45 56 58 56 55 60 66 68 67 65 65 64 62 61 60 60 59 59 58 58 58 58 59 61 63 65 67 69 71 72 74 75 76 77 77 78 79 80 80 81 82 83 84 85 86 87 89 90